TimeAKST,TemperatureF,Dew PointF,Humidity,Sea Level PressureIn,VisibilityMPH,Wind Direction,Wind SpeedMPH,Gust SpeedMPH,PrecipitationIn,Events,Conditions,WindDirDegrees,DateUTC
12:53 AM,-24.0,-29.9,74,29.90,9.0,NNE,11.5,-,N/A,,Clear,30,2014-02-17 09:53:00
1:53 AM,-22.0,-29.9,67,29.91,10.0,NE,15.0,-,N/A,,Clear,40,2014-02-17 10:53:00
3:53 AM,-26.0,-34.1,66,29.93,9.0,NNE,9.2,-,N/A,,Clear,20,2014-02-17 12:53:00
4:53 AM,-26.0,-33.0,69,29.93,8.0,NNE,10.4,-,N/A,,Clear,30,2014-02-17 13:53:00
5:53 AM,-26.0,-33.0,69,29.95,7.0,NE,10.4,-,N/A,,Clear,40,2014-02-17 14:53:00
6:53 AM,-27.0,-34.1,69,29.96,10.0,NNE,11.5,-,N/A,,Clear,30,2014-02-17 15:53:00
7:53 AM,-27.0,-34.1,69,29.96,10.0,NE,13.8,-,N/A,,Clear,40,2014-02-17 16:53:00
8:53 AM,-27.0,-34.1,69,29.98,10.0,NE,13.8,-,N/A,,Clear,40,2014-02-17 17:53:00
9:53 AM,-26.0,-34.1,66,29.99,10.0,NE,13.8,-,N/A,,Clear,40,2014-02-17 18:53:00
10:53 AM,-27.9,-36.0,65,30.01,10.0,NNE,8.1,-,N/A,,Clear,30,2014-02-17 19:53:00
11:53 AM,-27.0,-35.0,66,30.02,10.0,NE,9.2,-,N/A,,Clear,40,2014-02-17 20:53:00
12:53 PM,-26.0,-35.0,62,30.04,10.0,NE,10.4,-,N/A,,Clear,40,2014-02-17 21:53:00
1:53 PM,-22.0,-32.1,60,30.05,10.0,NE,12.7,-,N/A,,Clear,40,2014-02-17 22:53:00
2:53 PM,-23.1,-32.1,63,30.06,10.0,NE,10.4,-,N/A,,Clear,40,2014-02-17 23:53:00
3:53 PM,-29.0,-35.0,73,30.06,10.0,NNE,6.9,-,N/A,,Clear,20,2014-02-18 00:53:00
4:53 PM,-32.1,-9999,N/A,30.07,10.0,NNE,6.9,-,N/A,,Clear,30,2014-02-18 01:53:00
5:53 PM,-31.0,-9999,N/A,30.09,10.0,NNE,6.9,-,N/A,,Clear,20,2014-02-18 02:53:00
6:36 PM,-29.9,-9999,N/A,30.09,3.0,NNE,8.1,-,N/A,,Scattered Clouds,20,2014-02-18 03:36:00
6:53 PM,-32.1,-9999,N/A,30.10,3.0,NNE,8.1,-,N/A,,Partly Cloudy,20,2014-02-18 03:53:00
7:53 PM,-32.1,-9999,N/A,30.11,4.0,North,6.9,-,N/A,,Haze,10,2014-02-18 04:53:00
8:53 PM,-32.1,-9999,N/A,30.12,3.0,NNE,6.9,-,N/A,,Clear,20,2014-02-18 05:53:00
9:00 PM,-32.1,-9999,N/A,30.12,2.0,NNE,6.9,-,N/A,,Clear,20,2014-02-18 06:00:00
9:08 PM,-33.0,-9999,N/A,30.12,1.8,NNE,6.9,-,N/A,,Clear,20,2014-02-18 06:08:00
9:53 PM,-34.1,-9999,N/A,30.13,1.5,North,5.8,-,N/A,,Clear,10,2014-02-18 06:53:00
10:08 PM,-33.0,-9999,N/A,30.13,2.0,North,6.9,-,N/A,,Clear,10,2014-02-18 07:08:00
10:23 PM,-33.0,-9999,N/A,30.13,1.8,North,6.9,-,N/A,,Clear,10,2014-02-18 07:23:00
10:53 PM,-33.0,-9999,N/A,30.14,1.5,North,6.9,-,N/A,,Clear,10,2014-02-18 07:53:00
11:33 PM,-36.9,-9999,N/A,30.14,3.0,Calm,Calm,-,N/A,,Clear,0,2014-02-18 08:33:00
11:53 PM,-36.9,-9999,N/A,30.15,4.0,Calm,Calm,-,N/A,,Haze,0,2014-02-18 08:53:00